Погода в Когалыме

Погода в Когалыме : погода сейчас, прогноз погоды и архив. Всё, что Вы хотите узнать о погоде в Когалыме!

Хотите узнать прогноз погоды в Когалыме? Тогда Вам сюда: Погода в Когалыме

Поиск расширенной информации на нашем сайте:

Другие новости

Новости СМИ2

Главная страница сайта

Новости сайта

03.07.2017

Напоминаем, что на нашем специализированном сайте Метеоцентр.Азия вы можете получить высокодетализированные автоматические прогнозы погоды по пунктам России, СНГ и мира в авиационном формате (включающие направление и скорость ветра, видимость, явления погоды, количество и форму облачности, нижнюю и верхнюю границу облачности).


Погода в Когалыме - сегодня

Время (UTC), дата Ветер
(°,м/с) 
Видим.   Явления Облачность Т
(°С)
Тd
(°С)
f(%) Тe
(°С)
Pmin
(гПа)
dP
(гПа)
Po
(мм)
O2
(г/м3)
Тmin Tmax R s Состояние
почвы
21 12.10.18 220 (ЮЗ) 40000 м    3/0 средняя 
[Ac trans]
-3.3 -4.1 94 -4  998.6  0.3  743  303           
00 13.10.18 180 (Ю) 40000 м    ясно 
-5 -5.6 96 -6  999.2  0.5  743  306           
03 13.10.18 170 (Ю) 40000 м    ясно 
-3.3 -4.1 94 -4  999.4  0.3  743  304  -5.1    0.2     
06 13.10.18 160 (Ю) 40000 м    3/0 верхняя 
[Ci fib]
+0.6 -2.3 81 -1  999.1  -0.2  743  299           
09 13.10.18 150 (ЮВ) 40000 м    3/3 600 м 
[Sc diur, vesp]
+2.4 -3.2 66 999.4  0.4  743  297           
12 13.10.18 150 (ЮВ) 40000 м    8/8 1300 м кучево-дожд. 
[Cb cap]
+1.1 -2.8 75 1000.1  0.7  744  299           
15 13.10.18 150 (ЮВ) 8000 м  слаб. ливневой снег  10/4 1000 м кучево-дожд., средняя 
[Cb cap|As op]
+0.6 -3 77 1000.3  0.1  744  299    +2.6  0.1     
18 13.10.18 150 (ЮВ) 10 км  слаб. ливневой снег  10/4 1000 м кучево-дожд., средняя 
[Cb cap|As op]
-0.4 -2.5 86 999.8  -0.5  744  300           
00 14.10.18 120 (ЮВ) 40000 м  {ливн. осадки}  10/4 200 м кучево-дожд., средняя 
[Cb cap|As op]
-0.6 -1.2 96 1001.5  0.9  745  301           
03 14.10.18 170 (Ю) 10 км  слаб. ливневой снег  9/9 210 м кучево-дожд. 
[Cb cap]
-0.5 -2 90 -2  1003.7  2.1  746  302    -0.7  0.1  сухой снег
10-40% 
09 14.10.18 140 (ЮВ) 40000 м    8/6 840 м кучево-дожд., средняя 
[Cb cap|Ac trans]
+1.3 -1.6 81 1009.1  2.8  751  301           
15 14.10.18 190 (Ю) 40000 м  {ливн. осадки}  8/8 600 м кучево-дожд. 
[Cb cap]
+0 -0.3 98 -1  1014  2.3  754  304    +1.7  0.3     
03 15.10.18 200 (Ю) 40000 м    9/9 300 м кучево-дожд. 
[Cb cap]
-0.2 -0.5 98 -2  1019.2  1.3  758  306  -0.5    <0.5  сухой снег
50-90% 
06 15.10.18 210 (ЮЗ) 40000 м    9/9 1170 м 
[Sc]
+1.1 -2.4 77 1020  0.9  759  305           
09 15.10.18 210 (ЮЗ) 40000 м    8/8 660 м 
[Sc]
+1.6 -2.5 74 1020.5  0.5  759  304           
18 15.10.18 180 (Ю) 40000 м    8/8 1440 м 
[Sc]
-0.4 -1 96 -1  1022.8  0.2  761  307           
21 15.10.18 250 (З) 40000 м    8/8 1440 м 
[Sc]
-0.3 -1.2 94 -1  1022.4  -0.4  760  307           
00 16.10.18 200 (Ю) 40000 м    9/9 210 м 
[Sc]
-0.4 -1 96 -2  1021.8  -0.6  760  307           
03 16.10.18 190 (Ю) 40000 м    9/9 210 м 
[Sc]
-0.2 -1.1 94 -3  1020.9  -0.9  759  306  -0.6         
15 16.10.18 200 (Ю) 8-12{13}  40000 м    10/6 800 м средняя 
[Sc|Ac As]
+0 -4.1 74 -4  1012.5  -2.7  753  304    +0       
00 17.10.18 200 (Ю) 7-10{12}  6000 м  слаб. ливневой снег  10/10 210 м кучево-дожд. 
[Cb cap]
-0.8 -2 92 -5  1004.6  -2.4  747  302           
03 17.10.18 200 (Ю) 7-10{11}  40000 м  {ливн. осадки}  10/10 210 м кучево-дожд. 
[Cb cap]
-1.1 -2.3 92 -5  1002.9  -1.6  746  302  -1.2    сухой снег
50-90% 
15 17.10.18 160 (Ю) 2000 м  снег  10/10 120 м 
[Frnb]
-0.6 -0.9 98 -2  999.1  -0.5  743  300    -0.6     
03 18.10.18 070 (В) 5000 м  слаб. снег  10/10 150 м 
[Ns]
-0.8 -1.1 98 -2  1001.6  1.7  745  301  -0.8    равномерный
сухой снег
100% 
15 18.10.18 040 (СВ) 6000 м  слаб. снег  10/8 120 м средняя 
[Sc|As op]
-0.2 -0.5 98 -1  1008.2  0.9  750  302    +0.4     
Время (UTC), дата Ветер
(°,м/с) 
Видим.   Явления Облачность Т
(°С)
Тd
(°С)
f(%) Тe
(°С)
Pmin
(гПа)
dP
(гПа)
Po
(мм)
O2
(г/м3)
Тmin Tmax R s Состояние
почвы

Для получения пояснительной информации подведите курсор к названию столбца.

ПОГОДА в Когалыме - архив

Всё, что Вы хотите узнать о погоде в Когалыме - удобно и подробно!

Выберите нужную дату (начиная с 1 января 2015* года) и нажмите кнопку "Найти".
Будут отображены архивные сводки погоды по пункту Когалым, начиная с указанной даты.


Отображать данные в формате CSV (для использования в таблицах Excel)


Внимание! Наш архив погоды предназначен исключительно для личного некоммерческого использования в познавательных целях. Если Вам необходимы официальные справки о состоянии погоды (для производственных, юридических, коммерческих и т.п. целей), обращайтесь в органы Росгидромета.

*Примечание: данная дата относится к архиву по метеостанциям СССР (Россия, СНГ, Балтия).
Архив по метеостанциям Зарубежной Европы и Азии (кроме Китая) хранится 10 дней, по другим регионам земного шара (Китай, Африка, Америка, Австралия, Океания) - 1 день.

Когалым - район местоположения метеостанции


Название, широта, долгота, высота метеостанции:
Когалым 62.2°ш. 74.5°д. 67 м над ур. моря [Российская Федерация]

Дополнительная информация

В oтличие oт бoльшинства пoгoдных сайтoв мы публикуем пoдрoбную метеoинфoрмацию в детальнoм прoфессиoнальнoм фoрмате.

Характеристики температуры и влажнoсти вoздуха измеряются на высoте 2 м в тени вдали oт зданий и деревьев.
Скoрoсть ветра измеряется на высoте 10 м (на урoвне рoста челoвека скoрoсть ветра ниже в 1.5-2 раза). Если метеoстанция нахoдится в гoрoде или в лесу, тo скoрoсть ветра занижена на 2-4 м/с пo сравнению с oткрытым местoм. Скoрoсть ветра над акватoриями крупных рек и oзёр, а также на вершинах хoлмoв на 2-5 м/с выше, чем в oбычных услoвиях.
Атмoсфернoе давление в разных тoчках местнoсти мoжет значительнo oтличаться oт давления на метеoстанции, в зависимoсти oт услoвий рельефа (при пoдъёме на 10 м давление пoнижается примернo на 1 мм рт.ст.).